Wind_Speed
4 4 5 6 8 10 9 6 4 4 5 7 8 8 12 11 5 7 8 3 1 4 7 3 2 2 4 6 15 15 14 12 9 4 4 5 10 11 14 25 25 22 22 19 15 14 15 17 19 19 19 18 19 20 21 22 21 19 16 14 13 13 12 13 16 18 18 17 15 14 15 15 15 14 13 12 11 13 15 15 16 16 16 17 17 17 17 16 15 14 14 13 12 12 12 12 12
3 5 7 8 10 8 5 4 5 5 6 8 8 10 10 6 3 6 6 3 6 8 4 2 3 2 1 6 15 16 14 15 12 8 7 11 13 12 15 22 21 22 21 17 17 16 14 17 19 20 19 19 19 21 22 22 21 18 16 14 14 13 12 14 17 19 19 19 18 15 14 14 14 14 13 12 12 14 15 15 15 16 16 16 16 16 15 15 14 13 12 12 11 12 12 12 11
7 10 10 9 8 7 5 4 6 6 7 8 7 10 10 7 3 3 5 8 8 6 2 1 1 1 2 5 11 14 11 12 13 10 8 12 11 10 16 18 20 22 20 18 18 16 15 18 20 20 20 20 21 22 22 21 19 17 15 14 14 12 13 15 17 19 19 20 19 16 15 15 15 15 14 13 13 14 14 14 15 16 16 15 15 15 14 13 13 12 11 11 11 11 11 11 10
8 10 10 9 6 6 5 4 6 7 8 8 7 11 11 8 6 11 8 5 4 3 2 4 4 4 7 7 11 12 10 10 12 11 6 11 11 13 18 19 20 20 19 18 18 17 15 19 21 20 21 21 22 22 22 20 18 16 15 14 13 13 14 15 17 19 19 20 19 17 17 16 16 16 14 13 13 13 14 14 15 16 15 14 14 13 12 11 11 10 10 10 9 9 9 9 9
8 10 11 9 5 4 5 5 6 7 8 7 7 9 5 2 3 8 7 2 1 2 4 4 6 8 12 10 8 7 9 10 12 13 10 13 15 18 21 21 19 17 18 19 20 18 16 20 20 21 21 21 22 21 21 19 17 16 15 14 13 14 14 16 16 17 20 20 19 18 18 17 16 15 14 13 12 12 12 13 14 15 14 13 13 12 11 10 9 9 9 9 8 7 8 8 9
10 12 10 9 6 5 5 6 7 8 10 9 9 9 3 3 3 6 3 2 2 2 4 4 4 11 11 9 9 7 7 9 10 13 15 16 17 20 22 21 18 16 18 20 19 16 17 21 20 20 20 20 21 21 21 19 17 16 15 14 14 15 15 16 15 17 21 21 19 18 18 18 17 16 15 14 13 11 12 13 13 13 13 11 10 11 11 10 9 10 10 9 7 7 7 8 10
11 9 7 7 5 5 6 7 9 8 11 12 12 9 2 4 4 3 3 2 3 3 5 6 6 11 9 8 9 10 11 10 11 15 18 18 18 19 21 20 19 18 19 22 18 16 19 21 21 21 20 20 21 21 20 18 17 16 15 15 15 17 17 16 15 16 19 20 20 19 18 18 18 17 16 15 13 12 12 12 12 11 10 9 10 10 10 10 10 11 10 9 8 8 8 9 12
12 8 4 6 5 5 7 8 10 8 12 14 10 6 4 6 3 1 4 3 4 7 7 6 6 8 9 12 9 10 17 16 18 21 22 20 20 19 20 20 21 22 22 22 19 18 21 21 22 22 21 21 21 20 19 18 17 17 16 15 16 17 16 15 14 14 15 17 19 19 18 18 18 17 16 15 13 12 11 11 10 9 9 9 10 10 10 10 11 11 10 10 10 10 9 10 14
11 8 4 6 6 6 8 8 10 10 13 15 9 8 4 3 1 2 4 3 3 7 10 7 6 7 11 16 10 10 16 19 22 22 21 20 19 18 19 20 23 25 22 21 18 19 22 21 21 21 21 20 19 19 18 17 17 17 15 16 17 17 16 15 15 14 13 15 18 19 18 17 17 17 16 16 14 12 11 10 9 8 9 10 10 10 10 10 10 10 10 10 11 10 11 11 16
8 7 5 6 6 8 8 8 9 10 12 14 10 5 3 4 5 5 6 7 4 4 9 9 8 11 14 13 10 10 14 17 20 19 19 19 18 18 19 21 24 25 22 21 20 22 24 22 21 19 20 19 18 18 18 18 17 17 16 16 17 18 17 16 16 16 15 15 17 18 17 16 16 16 17 16 15 13 12 10 9 9 10 11 11 10 10 10 9 9 10 11 11 11 11 13 17
5 5 5 6 6 8 7 8 9 10 12 12 6 2 1 2 5 6 7 9 7 8 7 6 6 15 15 10 8 11 17 16 17 17 17 16 17 19 19 23 25 23 23 24 24 25 24 21 21 20 20 20 19 19 19 19 18 17 17 17 19 19 19 18 18 18 17 16 17 18 17 16 16 17 17 17 16 14 12 10 9 11 12 12 11 11 10 10 9 9 10 10 10 10 12 14 18
6 6 6 6 7 7 8 9 9 11 10 7 3 3 4 4 5 6 8 9 8 10 8 6 6 14 13 9 7 10 18 15 16 16 15 16 18 18 20 25 24 22 23 24 23 23 22 19 19 20 20 21 20 20 19 18 18 18 19 19 20 20 20 19 19 19 18 17 17 17 17 16 15 16 17 16 15 14 12 10 10 12 13 12 11 11 10 10 10 10 10 10 10 10 11 14 17
6 7 6 7 7 8 10 10 9 10 4 4 4 4 4 5 6 7 9 9 6 8 9 8 5 13 11 9 7 8 14 16 17 15 15 17 18 19 21 24 22 22 23 21 21 22 21 19 18 17 17 19 18 18 17 16 17 18 19 19 20 20 20 21 21 20 18 17 16 16 16 16 15 15 15 15 15 14 13 10 11 13 13 11 11 10 10 10 10 10 9 9 10 10 10 13 15
7 6 6 7 6 9 9 10 10 7 5 5 5 9 6 4 7 9 9 9 9 10 8 10 9 16 10 8 8 6 12 17 19 15 16 17 18 20 21 22 21 23 24 20 20 22 20 18 17 15 14 14 14 15 13 13 14 16 17 18 18 17 19 21 21 20 18 16 15 15 15 15 14 13 13 15 14 14 13 11 11 14 13 11 10 10 9 9 10 10 9 9 10 10 10 11 13
8 5 6 7 6 9 8 10 9 7 7 4 8 9 5 6 5 8 9 9 10 7 7 12 9 9 8 8 8 8 15 19 18 16 17 18 19 21 22 21 20 23 23 19 18 19 18 16 16 15 14 12 12 11 10 11 12 14 16 17 16 16 18 20 21 20 17 15 14 15 14 13 12 11 11 13 13 14 14 11 12 14 14 12 10 10 9 9 9 9 9 9 10 10 11 13 15
7 6 6 6 7 8 8 9 7 9 4 8 8 8 7 6 4 7 8 5 4 8 6 6 5 7 8 9 13 16 20 19 17 17 18 19 21 21 20 20 18 21 23 20 16 16 17 16 16 15 14 13 11 10 9 11 13 14 16 15 14 15 18 19 19 18 17 15 14 14 14 13 11 10 10 11 13 15 14 11 11 14 14 13 11 10 9 9 9 10 9 9 10 11 13 17 19
6 6 7 6 8 8 9 8 6 8 2 8 5 8 7 7 7 9 7 2 5 9 6 8 12 14 13 14 20 22 21 19 17 17 18 18 20 17 16 16 15 16 21 19 12 13 18 16 16 15 14 13 12 10 10 11 13 14 14 14 14 14 17 18 18 17 16 14 13 14 14 12 11 10 10 10 13 16 16 12 12 14 15 14 12 10 9 9 10 10 9 10 11 12 15 18 18
6 6 7 7 7 9 11 9 4 3 3 4 0 6 8 8 10 6 4 6 7 9 9 16 17 16 18 20 23 22 20 19 16 16 16 15 14 13 13 13 13 13 15 15 10 13 18 17 14 14 14 14 13 13 12 11 13 13 11 12 12 13 15 16 18 16 14 13 13 15 14 12 10 10 11 11 11 16 19 15 13 15 16 14 12 11 10 9 10 11 10 10 12 13 16 18 17
7 6 7 8 8 11 11 5 4 6 4 4 2 4 7 6 11 7 7 10 8 8 10 15 15 16 19 21 21 20 18 17 15 15 15 14 12 13 13 12 13 13 14 14 13 15 18 16 13 13 15 16 16 15 13 12 13 13 11 11 11 12 13 15 16 13 12 12 13 15 16 13 11 11 12 11 11 14 19 17 15 16 17 15 13 11 10 9 10 12 12 12 13 13 15 15 15
8 7 7 9 11 14 10 1 6 8 4 1 1 6 4 3 7 9 11 10 9 9 10 12 13 16 16 16 18 18 16 15 14 13 13 14 13 14 14 14 14 14 15 14 14 16 17 15 12 15 18 18 17 16 14 14 14 13 12 12 12 11 12 13 14 12 12 12 12 14 15 15 13 12 12 11 12 13 16 17 16 17 17 16 14 11 10 9 10 12 12 13 13 12 13 11 8
7 8 8 10 12 14 8 1 0 3 3 5 1 5 6 4 2 6 12 9 7 10 12 15 16 17 16 15 15 16 14 13 14 13 13 14 13 12 13 14 13 15 14 13 14 15 17 16 16 18 19 19 17 15 14 15 15 14 13 12 12 11 12 12 12 11 10 11 13 15 15 14 15 14 12 12 13 13 14 16 17 19 18 17 15 13 11 10 10 13 14 13 12 12 12 11 9
7 10 12 15 12 11 5 2 6 4 2 5 1 5 5 6 3 6 10 7 2 1 8 17 18 16 16 14 14 14 12 11 12 11 11 13 15 12 11 12 11 12 13 13 16 17 17 17 18 20 20 19 16 15 15 14 15 14 12 12 12 12 13 12 11 11 10 13 16 17 14 12 12 13 13 14 13 11 12 15 16 20 21 17 16 14 12 11 11 13 14 13 12 10 8 10 10
8 9 13 18 15 11 6 3 5 4 4 8 5 3 3 4 7 9 7 5 12 14 15 20 17 15 16 13 13 12 11 10 10 10 10 11 15 13 11 12 11 12 12 14 17 17 18 18 18 20 20 18 16 15 14 14 14 14 13 13 13 14 14 12 11 10 10 14 16 14 11 10 10 9 11 13 13 11 12 14 14 18 21 19 17 15 12 12 12 12 14 14 10 8 9 8 9
10 9 11 16 15 11 8 3 2 3 7 11 5 4 3 8 8 10 5 9 18 18 16 18 16 16 16 12 11 10 10 9 7 9 10 10 15 14 11 10 12 13 11 13 16 16 16 17 17 18 18 17 15 13 12 12 13 13 13 12 13 14 13 13 12 10 10 11 14 13 10 10 8 8 12 15 13 12 12 12 14 16 18 19 19 18 14 13 13 13 14 13 11 10 10 10 8
13 12 12 12 12 12 9 4 2 6 10 9 4 3 9 11 8 9 7 11 17 18 16 17 16 16 15 12 11 9 8 8 7 11 10 13 17 14 11 10 13 14 12 12 15 16 14 15 15 16 18 16 13 12 10 10 12 10 9 11 13 12 11 12 11 10 9 9 12 11 10 10 7 8 13 15 14 13 13 12 14 16 17 19 21 20 17 16 15 15 15 14 13 12 10 10 9
12 13 13 13 11 11 12 9 6 7 8 8 7 8 11 10 7 7 9 10 14 17 16 16 16 16 14 12 11 9 9 7 8 10 9 14 18 13 11 11 12 13 13 14 15 14 13 14 14 15 17 15 12 11 8 8 9 8 6 9 11 10 9 10 10 9 6 7 11 9 10 10 8 11 15 16 15 13 13 13 14 16 17 18 21 21 18 16 16 17 17 15 14 12 10 10 9
11 14 15 16 13 9 11 12 9 8 8 10 11 11 12 8 6 7 11 10 12 15 15 16 15 15 14 11 9 9 8 8 9 9 9 11 14 12 10 12 12 11 12 15 14 13 14 14 13 14 15 14 12 9 7 7 7 5 6 8 8 8 9 9 7 6 4 6 8 9 11 10 8 12 15 15 15 13 13 13 13 14 16 17 19 20 17 15 16 16 15 15 13 12 11 11 10
13 12 12 16 16 10 11 11 10 10 9 12 13 13 12 9 8 10 12 11 11 14 14 15 15 14 13 10 9 8 7 8 9 8 8 8 10 12 11 11 12 10 10 13 13 13 14 13 12 13 12 11 11 8 6 6 4 3 6 6 6 7 7 4 2 4 4 4 7 11 13 13 11 12 13 14 14 13 14 15 15 16 15 16 17 17 17 15 15 15 14 14 13 13 11 12 12
13 9 8 14 15 13 13 12 12 12 10 13 12 12 12 10 13 13 14 13 12 14 12 13 14 14 13 10 7 8 6 6 8 8 7 9 10 12 13 12 12 10 9 12 14 13 14 14 12 13 12 10 9 7 4 4 3 3 5 4 5 4 3 1 1 3 5 4 6 11 14 14 14 14 14 15 14 13 14 14 16 17 17 16 16 16 16 15 14 14 14 14 14 14 12 12 12
13 10 8 10 11 13 15 11 13 14 11 14 12 10 10 12 18 15 14 14 13 13 11 11 14 13 12 10 7 8 6 4 7 9 9 10 10 11 13 13 11 10 10 12 13 12 13 13 11 11 11 10 8 6 4 5 4 3 4 4 4 2 3 2 4 6 7 7 7 10 14 16 16 16 15 14 14 14 12 13 14 16 17 16 16 15 14 15 14 14 15 14 13 13 11 12 12
11 11 9 8 8 10 15 13 14 15 11 15 14 8 7 12 18 13 13 13 13 12 10 9 13 12 10 8 8 8 6 5 9 12 11 11 11 11 12 13 12 11 12 13 12 12 11 10 10 10 10 11 10 9 8 7 5 4 4 5 5 5 6 7 8 9 10 10 10 11 15 17 18 17 16 14 14 14 12 13 14 14 15 17 16 15 13 13 14 14 15 15 14 13 12 12 12
9 10 9 9 9 8 15 17 15 14 11 16 16 8 8 13 15 14 13 11 12 13 12 13 12 13 11 6 7 6 5 7 11 12 12 13 12 12 12 13 12 11 12 13 13 13 12 10 9 10 10 11 12 11 10 9 7 6 5 6 7 9 8 8 8 10 11 11 11 13 15 17 18 17 16 16 14 13 13 12 11 10 13 16 15 14 14 13 13 14 15 16 15 14 14 13 12
9 10 9 10 11 10 12 17 17 17 14 16 16 11 9 12 15 15 13 12 12 13 14 14 11 14 13 8 7 5 5 7 10 11 12 12 12 12 13 14 13 11 12 13 14 14 13 10 10 10 11 11 11 10 10 9 8 7 6 6 8 7 5 5 7 9 11 12 13 14 14 15 17 18 17 16 15 13 12 12 9 7 10 14 13 12 14 14 14 14 14 16 17 15 15 14 13
9 9 9 11 13 12 10 16 18 19 17 15 17 15 10 10 18 17 14 13 12 12 15 13 11 12 10 8 8 8 8 7 8 10 11 12 13 13 14 15 14 12 12 13 14 14 13 11 9 9 10 10 10 10 9 9 8 6 5 5 5 3 2 5 7 9 13 14 15 14 13 14 16 18 18 17 17 14 13 13 11 8 8 13 14 12 14 14 14 15 15 16 17 17 16 15 15
10 10 9 10 12 14 12 13 17 20 20 16 17 17 8 6 15 15 14 14 12 11 15 12 10 12 11 10 9 8 8 7 8 10 12 12 13 14 14 15 15 13 13 12 12 12 12 11 10 9 9 9 9 9 9 9 9 7 5 3 3 4 5 8 10 13 15 16 17 16 15 15 16 18 19 18 18 16 14 14 13 11 10 12 14 14 15 15 15 16 17 17 17 17 17 17 16
14 13 11 12 11 13 15 13 18 21 19 15 16 16 11 8 10 12 12 13 11 9 13 12 10 12 12 11 10 9 8 6 8 11 12 13 13 14 15 15 16 15 15 14 12 10 9 9 9 8 8 8 9 8 7 6 7 6 5 4 6 8 10 11 12 14 16 16 17 18 17 16 16 18 19 19 17 16 15 15 15 14 13 14 16 16 16 16 15 16 16 17 17 17 17 16 15
16 13 13 15 12 12 16 14 19 20 15 13 17 17 15 13 11 12 11 11 11 10 12 11 11 11 10 11 10 10 8 7 9 11 12 14 14 15 16 16 16 16 16 15 14 11 8 7 7 6 5 5 5 4 3 3 3 4 6 7 9 11 12 12 12 14 15 16 17 18 19 18 17 18 19 18 16 15 16 17 17 15 15 17 19 18 17 17 16 16 16 16 17 17 17 15 15
17 13 12 13 13 12 15 15 21 19 14 13 17 14 14 14 12 12 11 10 9 10 10 10 12 11 8 10 11 9 5 6 10 11 12 14 14 15 16 15 15 15 15 15 13 12 11 8 7 6 4 4 3 2 3 3 5 6 8 9 9 10 11 12 12 14 14 15 16 17 18 18 17 18 19 17 15 15 15 15 15 15 17 19 20 19 17 17 17 16 16 17 19 18 17 16 16
16 12 10 10 12 12 13 17 22 18 11 12 16 11 11 12 10 10 10 8 6 9 10 7 8 9 11 13 10 7 6 7 9 10 11 14 15 15 15 14 14 15 14 14 13 12 12 10 9 7 5 4 3 4 5 6 6 7 7 8 9 10 10 12 12 13 13 15 15 15 16 16 17 19 19 18 16 15 15 14 15 17 18 18 19 19 17 16 16 16 16 18 19 19 16 15 15
14 12 10 10 13 12 11 14 21 18 11 12 16 11 9 10 9 9 10 8 6 8 9 10 13 12 14 12 6 5 7 7 7 10 11 13 15 15 14 13 14 14 14 13 12 12 11 9 8 6 4 3 2 3 4 4 4 5 6 7 8 9 10 11 12 12 14 14 14 15 15 16 17 19 19 18 17 16 15 16 16 18 19 16 16 18 18 17 17 18 18 19 17 17 16 14 16
14 16 13 11 14 16 13 11 17 18 13 15 15 11 7 9 10 9 9 8 7 6 8 13 14 12 14 14 7 3 6 6 8 10 10 12 15 14 14 13 13 14 13 12 12 11 10 8 7 5 3 2 1 0 0 1 3 4 5 6 7 8 10 11 12 13 13 13 13 14 14 14 16 18 19 18 17 16 15 15 15 18 20 18 16 18 19 19 19 19 17 17 17 15 15 13 17
13 16 17 13 15 20 16 13 13 12 11 15 13 9 6 10 12 11 9 9 10 7 7 10 11 12 15 13 8 5 5 6 9 11 10 12 15 14 14 14 14 14 12 12 11 10 9 8 6 5 3 2 3 3 3 2 4 5 6 7 7 8 9 10 10 10 11 11 12 13 13 13 13 16 18 18 18 17 15 14 15 18 20 19 18 18 20 21 20 19 17 16 16 17 15 13 17
10 13 17 18 17 20 16 15 12 9 9 13 14 9 6 9 12 13 12 11 13 10 8 10 9 9 12 11 9 9 9 8 10 11 11 12 14 15 15 15 16 15 13 12 11 10 9 9 7 6 4 3 4 4 4 4 5 6 6 7 8 9 10 10 9 9 9 10 10 11 12 13 13 14 16 18 19 18 17 15 15 17 18 18 18 19 22 23 21 20 19 17 17 19 17 14 18
9 13 17 20 19 19 17 17 12 9 9 12 16 12 7 8 11 15 16 14 13 11 10 12 10 10 13 12 11 12 11 10 10 10 11 12 14 15 14 14 15 15 14 14 12 11 11 10 9 8 7 5 5 5 5 6 6 8 8 8 9 10 10 10 10 10 10 9 10 10 11 12 12 12 13 16 18 18 17 16 15 17 17 17 18 20 22 23 22 20 19 19 18 19 18 17 19
11 14 17 19 18 18 14 16 11 10 10 10 14 14 8 7 10 15 17 16 14 12 11 13 13 12 12 12 12 12 11 11 11 10 11 12 14 15 14 14 15 15 15 15 13 12 12 12 11 10 9 9 9 8 8 8 9 10 11 11 11 11 10 11 11 10 10 10 9 10 10 11 11 12 12 13 15 16 16 16 15 17 18 17 18 20 21 20 21 22 20 20 21 21 20 21 22
14 16 16 17 18 16 13 14 11 11 10 10 14 16 9 6 10 13 14 14 13 10 10 12 12 12 11 11 11 11 11 11 11 11 12 14 14 14 14 14 14 14 15 14 14 14 13 13 13 12 11 12 13 13 12 12 12 12 13 13 13 13 13 13 13 12 11 10 9 9 10 10 10 11 12 12 13 13 14 15 16 18 19 20 20 20 20 20 21 23 23 21 22 23 21 22 23
17 17 14 14 15 12 10 11 10 8 8 12 17 18 13 8 8 10 10 11 14 11 10 11 12 12 11 10 10 10 10 10 10 10 12 14 14 14 14 14 13 14 13 13 13 13 13 14 14 13 13 14 15 15 15 15 15 15 15 16 16 16 15 15 15 14 13 12 11 9 8 8 9 10 11 12 13 14 15 16 18 19 20 22 22 21 21 21 21 21 22 21 21 23 21 21 22
17 13 9 10 10 8 9 9 9 6 7 13 18 19 17 10 7 11 10 11 17 15 12 13 13 12 11 10 9 9 9 9 9 9 10 12 12 12 13 13 12 12 12 12 12 11 11 12 12 12 12 14 15 16 16 16 17 17 17 17 17 17 17 16 15 14 14 13 12 11 9 8 9 10 11 12 13 13 15 16 18 20 22 23 23 22 21 20 20 19 20 21 21 22 22 20 21
15 12 9 10 8 6 8 9 8 7 8 14 17 17 16 9 5 11 14 17 18 14 14 15 14 12 11 10 9 8 8 9 9 8 9 9 9 10 11 12 12 12 11 10 10 10 10 10 11 11 12 13 13 14 15 16 17 17 18 18 18 18 17 16 16 15 15 14 13 12 10 9 10 11 11 11 12 12 13 15 17 19 21 22 22 21 21 20 20 19 20 22 21 21 23 23 23
14 12 10 10 9 7 8 9 8 8 9 13 16 15 11 5 4 3 11 19 17 15 16 15 14 13 12 11 9 8 8 8 8 8 8 8 9 10 11 11 11 11 11 10 10 10 10 10 11 11 11 12 12 13 14 15 16 17 17 18 18 18 17 18 17 16 16 15 13 12 10 10 11 12 11 12 12 11 12 14 16 18 19 21 21 20 20 18 18 20 21 22 22 22 24 24 26
13 13 12 11 9 7 7 9 9 10 11 12 14 9 2 4 6 9 13 17 17 17 16 15 13 12 12 11 9 9 9 8 8 8 8 9 10 11 11 11 11 10 11 11 10 10 10 10 11 11 11 12 13 13 13 14 15 16 16 17 17 17 17 18 17 17 17 16 14 14 13 14 15 15 14 15 14 12 13 13 15 17 18 20 21 20 20 18 18 19 19 20 21 23 24 25 27
11 12 12 10 11 9 5 6 7 5 7 8 7 3 4 5 8 11 14 15 16 16 15 15 13 12 11 10 9 8 8 8 8 8 8 10 11 11 11 10 10 10 10 9 9 10 9 8 9 11 14 15 15 15 14 13 14 14 14 15 16 17 17 18 18 18 18 17 17 16 16 17 17 17 17 18 16 14 14 13 14 16 17 19 20 20 20 19 19 20 19 18 19 22 24 24 25
9 11 12 11 14 11 4 5 4 2 3 4 5 5 5 4 6 10 13 14 15 14 15 15 13 12 11 9 8 8 8 8 8 8 8 10 10 10 10 10 10 9 9 9 9 9 9 10 12 14 15 15 15 15 14 14 14 14 13 15 16 16 17 18 18 19 20 19 18 17 16 16 15 15 17 18 18 16 15 15 16 17 18 19 19 20 20 19 20 21 21 19 18 20 24 25 24
9 9 12 11 12 11 5 5 5 2 5 4 8 10 9 5 3 7 13 13 13 13 14 14 13 12 10 9 9 8 8 8 8 8 9 10 10 10 9 9 9 9 9 9 9 9 10 11 11 12 13 15 14 14 14 14 15 15 15 16 16 16 17 18 18 18 20 20 18 16 15 15 14 13 15 17 17 16 16 16 17 17 17 18 18 20 21 20 19 20 19 18 18 20 22 25 25
14 10 12 10 8 10 7 5 6 7 8 4 9 13 10 6 6 10 14 15 14 14 14 14 13 12 10 10 10 9 9 8 7 7 8 8 9 9 9 8 9 9 9 9 9 10 11 11 8 12 15 15 14 14 14 14 14 15 15 16 16 16 15 17 17 18 19 19 18 18 16 15 15 14 14 16 17 17 17 17 16 16 17 17 18 20 21 20 18 17 18 18 19 20 21 24 25
17 12 12 9 7 8 7 5 6 7 8 6 7 9 6 5 10 16 18 18 17 16 14 13 13 12 10 9 9 9 8 7 7 7 7 8 9 9 9 9 9 9 9 9 10 10 11 11 11 17 18 16 14 14 13 13 14 15 15 16 16 16 15 16 17 19 19 19 19 20 19 18 17 16 17 19 18 18 19 17 16 16 16 16 17 19 21 20 17 17 19 20 20 21 20 21 23
13 11 12 10 7 7 8 8 7 8 7 6 6 6 4 3 8 17 20 19 18 17 14 13 13 12 11 10 9 9 8 8 7 7 6 8 9 10 9 10 10 10 10 10 10 11 11 12 14 19 20 16 15 15 13 14 16 16 16 16 16 15 15 16 17 18 19 20 20 20 20 20 20 19 19 21 21 20 19 18 16 16 15 16 18 18 19 20 18 18 20 21 21 21 20 18 18
14 11 11 12 10 9 10 9 9 8 7 6 6 5 4 2 0 10 18 18 17 18 16 13 12 13 11 10 10 9 9 8 8 7 7 7 9 9 10 10 10 10 10 10 11 12 13 15 17 19 18 16 15 16 15 15 17 17 17 17 16 15 16 17 18 18 18 20 21 21 21 21 21 21 20 21 23 23 21 19 18 16 17 18 18 18 18 19 19 20 21 20 19 20 21 20 18
Wind_Direction
277 296 292 282 274 276 269 246 250 237 223 253 260 268 268 266 289 288 283 283 276 55 56 2 354 41 334 66 88 68 47 48 32 40 94 118 122 122 118 112 112 110 112 120 126 130 136 147 150 154 153 149 150 149 147 145 146 146 142 134 128 125 121 120 124 126 119 114 113 107 107 108 108 108 106 103 103 102 101 104 105 104 104 103 101 100 98 97 96 94 94 95 98 98 95 92 92
255 281 275 265 258 263 266 226 245 261 242 255 257 256 270 268 239 263 288 36 75 70 55 354 52 81 8 111 102 76 56 60 63 76 98 117 113 109 121 115 110 112 116 121 126 128 134 145 150 152 153 151 150 148 147 147 148 147 141 134 132 130 124 124 130 132 126 124 121 114 113 110 109 111 111 108 104 102 104 106 106 106 106 104 101 99 98 97 98 97 96 96 95 94 91 89 88
246 263 257 246 242 242 267 253 243 262 258 262 269 270 279 273 283 38 60 65 65 64 69 31 96 159 172 140 95 78 76 71 80 88 103 122 114 116 127 117 112 114 118 125 128 130 136 146 149 151 153 152 151 149 148 147 148 145 142 140 139 136 130 130 134 137 134 132 128 122 122 118 113 112 112 109 104 104 106 108 109 110 107 104 100 99 99 98 97 94 93 94 92 92 91 89 88
237 252 255 252 243 230 247 251 242 253 258 265 272 275 287 295 23 62 73 57 48 71 207 201 152 67 43 90 93 85 90 83 101 110 116 123 123 126 120 115 114 115 123 129 129 132 139 146 147 149 151 151 151 150 149 149 148 146 145 146 145 141 135 132 135 141 140 138 135 130 131 128 121 119 116 111 106 105 108 111 112 113 109 105 102 100 102 98 92 90 92 94 94 94 94 94 92
235 251 252 253 259 251 245 245 244 243 246 260 270 273 303 337 75 89 88 82 167 155 204 210 150 92 51 63 88 91 95 92 106 114 115 116 126 125 113 113 116 120 129 129 131 136 143 146 145 148 151 151 153 152 153 153 152 150 151 151 148 142 136 135 136 142 145 143 139 136 136 136 132 129 126 121 115 112 114 114 114 113 111 108 106 109 110 102 92 91 93 95 99 99 100 102 94
242 252 237 237 270 294 269 250 245 244 244 250 267 275 352 25 70 88 83 108 148 181 201 230 154 107 75 60 67 71 87 102 108 110 114 121 131 128 119 118 120 126 130 125 131 136 143 150 146 148 151 152 155 157 159 159 158 155 154 153 147 142 138 137 135 142 148 147 143 141 141 142 141 137 136 134 128 121 119 117 115 113 111 109 111 116 115 107 98 95 96 97 98 97 99 101 96
243 251 220 221 255 265 255 251 249 254 252 247 248 255 29 54 57 61 257 188 152 186 203 225 141 107 101 96 76 56 60 95 111 106 114 124 131 131 124 121 121 121 119 120 128 136 146 154 152 152 153 155 158 161 164 162 159 154 152 151 145 141 137 135 132 138 147 151 148 145 146 146 145 142 141 145 139 127 123 122 120 119 114 110 114 115 113 108 102 98 97 95 89 85 88 91 101
242 254 232 230 237 228 235 246 250 253 257 260 262 277 26 73 76 299 243 204 184 178 185 219 166 126 103 95 86 65 64 81 100 107 117 124 128 132 127 123 120 112 115 125 131 141 152 157 158 161 161 163 165 165 165 158 154 150 149 149 145 140 136 137 136 135 140 150 154 151 151 150 149 147 145 151 152 141 135 133 133 133 121 113 116 113 112 111 105 100 95 91 86 83 83 89 109
235 242 241 245 245 243 239 243 247 245 252 260 264 268 274 115 102 297 279 252 186 178 175 193 197 148 99 91 95 87 76 85 100 108 117 123 127 131 129 126 121 116 127 140 141 149 158 162 163 166 165 165 164 162 158 150 149 148 150 149 145 141 140 142 142 142 138 143 156 157 154 153 153 152 152 155 159 156 149 146 152 148 131 124 121 117 117 116 111 102 92 88 85 87 90 99 118
226 227 238 248 243 255 250 248 247 243 245 247 241 231 227 204 227 233 251 242 183 199 177 176 193 136 106 100 101 99 94 99 104 107 116 125 128 130 132 127 124 126 141 152 156 160 162 165 165 164 162 161 159 156 153 150 151 151 152 150 148 147 146 147 148 150 142 140 154 158 157 157 158 157 158 159 162 165 159 154 154 148 140 133 125 123 125 124 117 100 88 83 82 89 97 110 124
226 214 233 255 246 250 249 253 251 245 237 233 228 146 134 210 235 223 230 236 189 212 189 165 180 119 100 92 88 98 104 106 108 114 125 127 129 131 129 123 127 140 155 162 161 162 160 159 160 162 164 163 163 161 159 159 159 158 156 154 154 153 152 154 154 152 147 145 153 161 165 164 162 162 163 163 164 165 162 157 150 144 142 134 126 127 129 129 119 99 89 84 83 90 100 117 128
240 221 215 240 248 251 255 257 254 258 234 192 209 195 190 185 217 223 223 230 190 207 177 157 187 123 105 95 97 112 111 112 116 125 132 128 131 128 125 128 141 156 158 156 150 150 152 153 159 167 170 168 168 167 166 165 165 163 161 160 159 158 158 159 157 154 155 157 159 165 171 172 169 166 167 168 167 167 164 160 153 148 144 135 128 128 130 130 119 104 94 88 90 93 103 121 131
242 239 224 232 243 255 262 263 260 276 272 153 201 155 133 175 216 223 221 221 187 212 176 167 180 115 107 103 116 137 122 123 126 133 134 130 131 123 129 141 154 157 146 142 142 146 150 152 158 164 166 165 165 165 166 165 166 165 164 163 161 162 162 162 160 159 161 165 166 166 168 174 176 173 173 173 172 171 167 163 160 153 148 140 131 129 129 131 124 111 100 95 97 99 108 124 136
238 245 250 251 249 255 259 266 265 274 265 221 165 113 120 199 223 222 219 209 191 217 173 126 101 102 110 115 128 151 129 129 131 136 135 131 128 123 135 147 153 149 139 141 147 148 149 150 152 155 157 155 159 161 162 162 164 164 165 165 164 164 165 164 163 164 166 168 170 168 167 171 176 178 178 178 177 176 170 167 166 158 154 147 138 134 132 133 129 117 105 102 102 106 113 123 133
238 247 255 262 263 261 251 255 267 276 258 195 130 129 176 217 236 233 225 217 190 192 124 106 106 120 150 145 134 145 132 132 135 137 135 128 122 126 138 144 148 146 142 144 147 147 146 147 148 149 148 148 154 155 158 163 165 167 170 171 168 168 169 169 168 168 170 171 173 170 168 172 176 179 181 182 183 182 175 173 174 163 159 155 147 142 136 136 132 122 113 107 108 112 115 118 123
237 256 251 254 260 259 254 248 250 267 268 100 131 169 204 201 204 235 230 239 124 115 112 108 97 103 137 132 118 132 134 134 138 135 135 126 118 124 137 137 137 144 148 146 144 146 145 146 145 146 147 149 151 148 155 166 172 175 176 178 173 172 173 174 173 173 176 176 173 170 170 173 176 180 185 187 187 188 181 178 182 171 166 164 157 153 144 141 140 130 120 114 115 115 116 118 119
231 248 252 247 247 248 256 248 223 246 171 104 156 178 207 190 180 232 216 184 123 134 126 77 75 82 90 102 113 127 129 132 138 138 140 131 121 121 129 128 126 142 152 148 138 137 143 144 142 144 147 149 149 150 156 163 175 176 178 184 179 177 178 179 180 179 181 180 174 175 175 173 177 180 183 185 186 189 184 186 193 181 174 171 166 164 154 149 148 139 129 123 119 116 119 119 115
228 225 244 242 237 238 248 252 246 269 120 106 186 177 216 186 170 225 191 177 163 146 117 81 80 89 94 103 114 122 126 134 144 149 146 131 128 129 130 134 133 143 151 149 138 131 139 140 139 143 147 155 157 156 157 161 171 171 174 184 186 187 184 185 187 185 185 183 182 181 178 177 185 180 177 183 182 184 185 191 199 189 179 176 173 170 164 159 154 148 139 129 123 119 121 121 112
231 224 232 236 238 241 246 275 8 8 73 86 30 215 237 187 168 184 191 184 152 148 137 102 95 99 103 110 116 123 132 142 153 161 148 133 143 142 141 148 143 146 153 155 144 134 137 135 137 145 155 166 163 159 161 164 165 166 172 175 187 195 192 194 193 191 190 188 191 189 183 183 190 179 178 187 182 181 185 189 195 192 184 177 175 175 172 167 161 156 147 135 128 124 124 122 115
224 231 231 234 243 250 248 357 36 21 19 74 152 219 235 176 160 172 195 178 156 179 159 128 121 114 110 116 122 130 142 153 163 168 147 140 151 148 149 152 150 154 156 151 139 135 136 134 143 156 167 171 164 161 162 167 166 164 172 173 181 193 194 197 198 199 200 198 203 204 195 190 191 184 182 185 181 182 184 186 190 193 188 179 175 180 182 174 168 164 156 146 142 141 140 144 143
213 222 238 240 237 249 260 21 342 38 0 338 42 205 214 187 145 185 197 177 180 209 181 151 134 128 123 124 129 135 151 163 167 169 155 146 144 144 150 152 155 154 146 137 135 143 144 148 163 168 174 173 165 164 162 170 173 164 171 177 180 193 198 197 199 201 208 211 214 218 211 201 194 186 181 181 187 193 188 186 187 189 191 184 177 183 190 186 177 173 169 162 163 163 161 177 188
222 223 239 251 248 255 294 342 240 177 162 300 280 208 212 182 202 229 209 182 134 56 148 136 124 129 130 132 135 141 159 163 167 169 159 143 134 136 142 145 147 139 131 139 148 147 149 165 176 171 174 174 166 168 168 174 177 166 171 183 186 198 204 203 203 202 217 224 222 222 219 221 208 187 182 185 195 205 193 187 185 185 188 187 184 186 194 196 186 182 183 177 173 178 186 193 190
228 228 232 249 261 272 295 272 228 130 167 241 248 339 0 181 214 239 227 129 91 78 99 115 118 125 125 136 139 147 161 158 167 159 149 137 129 134 135 139 132 123 128 146 155 143 149 176 180 169 173 175 169 171 173 175 182 178 177 187 195 200 205 213 211 208 228 234 235 232 228 242 232 202 195 194 199 203 194 188 184 185 186 187 187 184 195 203 192 191 197 194 188 204 217 199 184
224 238 235 242 253 263 275 267 155 133 223 243 259 357 284 219 218 220 195 101 102 99 105 113 117 120 123 138 137 153 158 150 155 129 130 122 115 120 120 122 112 114 129 144 150 140 153 182 180 169 173 176 172 173 176 176 183 188 188 194 202 205 211 218 217 220 233 240 243 241 237 244 243 231 215 209 215 207 199 195 186 187 187 189 189 182 191 203 197 198 206 208 212 223 212 190 185
221 237 246 244 241 240 250 255 175 198 224 241 256 238 228 232 230 200 152 113 116 111 117 121 121 122 125 138 146 161 144 132 124 104 114 110 107 113 113 113 108 116 130 135 139 138 156 182 179 170 173 177 172 170 179 182 188 196 201 207 210 215 226 229 232 236 238 246 249 244 237 236 241 246 227 223 229 212 204 203 191 191 193 195 193 187 191 200 202 203 207 214 220 222 203 189 194
218 225 245 253 242 228 231 230 212 214 213 214 223 223 221 227 238 192 147 142 135 123 127 127 128 128 125 143 152 142 123 117 112 105 111 109 114 125 123 117 114 122 128 129 135 143 163 177 177 172 172 177 173 169 177 186 194 200 211 224 224 227 244 246 253 261 268 269 256 243 235 230 233 241 233 230 231 217 212 212 201 197 198 202 199 192 193 201 208 207 208 216 219 215 200 194 200
224 218 230 247 252 233 228 229 216 219 221 210 211 223 218 198 217 197 148 148 140 127 133 137 138 132 128 142 132 115 115 112 112 115 116 116 123 131 123 110 110 119 123 127 133 141 157 167 175 175 173 175 174 170 175 188 194 202 220 235 238 236 244 243 250 259 276 277 244 226 227 220 227 241 240 238 234 225 218 218 220 213 204 209 207 197 198 208 212 211 212 217 219 213 200 197 200
241 230 224 235 245 240 226 226 218 218 221 216 211 221 213 175 220 215 141 149 158 133 142 153 145 133 129 132 121 110 109 112 117 118 115 121 124 121 119 115 116 123 123 126 131 138 150 159 170 172 168 170 169 164 180 201 191 214 228 227 229 237 249 236 227 238 234 255 224 213 219 211 213 233 241 243 241 232 220 216 225 227 219 212 209 203 206 212 210 212 216 218 220 216 207 201 201
243 239 233 232 233 237 229 214 213 217 209 209 210 221 207 174 227 222 142 163 178 141 160 171 146 136 131 126 122 116 115 129 127 116 108 110 117 118 119 121 123 125 123 122 130 144 151 152 159 163 161 160 159 158 178 197 186 222 226 204 205 231 289 318 84 248 230 241 219 211 221 216 212 216 222 231 237 236 228 223 223 229 233 220 206 206 211 213 210 211 212 215 220 218 210 201 200
236 223 227 237 224 226 228 212 209 214 197 193 203 227 198 174 222 216 144 174 177 146 179 174 139 132 124 123 124 122 130 153 126 113 109 109 115 116 114 120 125 128 126 120 129 146 150 146 148 152 152 148 152 160 162 172 182 206 203 195 193 206 262 220 203 227 224 223 209 207 220 222 218 216 219 227 233 234 233 236 230 229 241 233 209 204 211 212 210 212 210 213 218 218 209 198 203
231 225 222 235 234 218 212 207 209 210 195 188 201 231 188 181 214 190 144 182 172 158 173 128 117 116 107 121 130 134 143 142 123 114 114 113 110 108 111 116 120 126 129 126 131 138 136 133 131 133 138 142 150 157 160 173 180 176 191 200 192 197 211 203 203 214 218 219 213 213 220 221 222 222 224 227 229 232 235 236 230 228 241 243 224 207 211 211 209 215 212 211 214 214 211 204 207
217 225 222 219 237 226 201 198 204 206 199 192 199 227 196 189 194 156 152 183 167 171 153 111 118 121 115 127 123 124 133 129 124 119 120 117 110 108 108 106 108 113 120 125 130 132 130 127 129 132 137 143 148 155 162 169 169 171 196 204 193 197 205 204 211 222 228 230 230 228 224 222 224 226 229 232 230 233 237 233 232 234 236 244 239 216 213 215 214 219 213 210 212 210 212 214 213
208 217 226 216 220 234 204 186 194 205 205 195 194 219 221 189 165 146 165 182 179 184 141 125 150 135 123 130 123 136 150 143 132 126 125 118 113 108 100 99 101 104 113 121 125 129 128 129 137 138 140 144 148 160 166 162 165 177 199 213 204 194 197 214 221 235 240 241 244 240 231 226 227 229 231 237 239 238 239 236 240 246 236 241 244 224 218 221 221 225 220 213 212 211 214 215 212
207 207 223 224 214 231 216 175 184 203 207 197 193 220 242 177 154 155 175 185 195 183 139 143 161 133 126 134 144 166 160 150 137 128 125 117 113 106 97 94 95 98 108 116 120 127 129 127 132 135 142 151 156 168 169 160 164 182 209 234 229 205 195 221 226 241 247 247 247 244 238 236 234 233 231 234 238 238 238 239 239 236 232 236 236 225 220 226 232 231 224 219 216 212 213 214 210
210 202 213 229 215 225 225 177 175 198 205 196 197 221 239 148 149 163 181 188 202 181 142 143 142 130 141 147 156 166 150 142 133 124 119 111 105 101 96 92 89 90 99 109 112 114 120 124 130 137 144 156 164 167 165 162 163 178 206 244 251 246 236 227 230 239 242 246 246 243 242 242 241 235 229 229 231 232 233 234 235 232 227 234 236 229 222 226 243 244 229 223 222 215 214 217 210
214 205 209 225 217 221 228 192 169 190 203 194 203 217 202 166 162 171 180 187 200 176 143 147 154 156 161 163 164 150 132 129 120 115 111 103 96 92 88 87 84 80 85 98 102 95 101 117 128 136 144 158 165 162 159 163 160 168 195 223 238 244 239 228 232 237 239 245 250 249 248 247 246 237 230 228 226 226 225 221 229 235 231 234 235 233 229 224 235 253 242 228 225 217 216 219 206
222 208 209 224 223 221 225 195 165 185 201 193 211 216 187 174 181 180 177 186 195 171 151 161 171 173 166 155 142 123 117 117 105 98 96 92 87 83 79 79 80 77 78 83 90 93 93 100 106 106 119 136 135 133 135 154 168 183 202 215 227 237 238 230 231 238 240 245 250 251 250 248 248 242 234 230 225 223 223 219 225 233 231 232 230 228 232 229 230 250 252 240 239 225 215 216 204
238 219 208 219 225 225 220 181 158 184 203 195 210 206 172 174 186 178 170 184 186 161 163 179 176 170 140 110 96 84 87 102 97 87 83 85 84 79 76 75 75 75 74 73 76 85 89 94 99 97 107 108 103 141 182 199 205 207 209 214 221 230 236 234 234 239 243 246 249 249 249 248 248 243 236 232 227 224 226 225 225 230 231 230 229 223 225 234 237 245 242 237 247 239 218 214 206
246 236 212 214 225 223 213 176 160 182 204 194 197 182 155 169 175 158 163 183 164 154 174 170 145 130 99 87 78 69 67 67 76 80 79 82 82 81 79 76 75 74 73 72 70 74 78 83 91 98 114 123 146 189 200 207 211 214 217 222 227 232 239 241 242 244 242 243 246 246 245 245 245 242 238 235 232 229 232 232 228 232 233 228 227 224 223 233 238 242 234 224 239 250 235 215 207
243 245 220 211 220 220 212 180 167 178 199 200 184 162 146 158 159 160 170 170 145 163 168 108 90 102 105 104 102 95 94 84 81 83 79 80 80 79 79 77 75 73 71 71 68 68 68 68 73 81 92 112 157 187 190 198 220 225 218 226 237 243 251 252 253 252 246 245 248 250 248 245 244 244 242 240 236 232 230 228 225 231 237 234 230 227 226 230 234 238 234 221 225 251 253 224 209
232 243 238 214 208 222 222 181 168 173 198 218 188 154 157 168 169 170 162 150 137 153 150 108 95 106 109 106 105 86 98 105 97 88 82 83 81 77 78 78 76 73 69 67 66 66 69 69 70 73 70 48 40 353 288 236 256 252 229 232 238 241 249 248 246 250 250 247 250 256 256 253 253 250 245 239 236 233 226 224 227 232 236 236 232 230 228 227 230 235 235 226 220 237 259 236 211
224 234 243 227 203 220 217 170 165 174 198 216 182 148 168 176 179 170 153 160 152 137 135 119 110 116 111 108 119 125 117 109 97 93 90 88 85 80 74 70 69 69 66 65 66 65 66 67 67 70 74 32 20 359 337 316 280 273 261 257 253 253 259 254 250 258 262 255 255 259 260 262 260 252 245 239 238 238 235 232 233 234 231 230 230 232 231 225 227 233 232 231 227 229 250 245 216
223 215 233 239 218 218 202 160 171 194 201 196 170 167 178 175 190 174 157 167 159 155 158 136 116 114 112 114 128 128 119 106 94 88 81 78 76 72 64 57 58 58 60 65 64 60 56 52 51 50 54 37 10 351 341 333 298 288 287 285 285 284 283 283 284 290 286 275 270 267 266 267 261 249 242 241 241 241 240 236 231 230 230 229 230 231 232 229 228 230 229 231 232 228 233 233 222
220 200 220 239 230 220 193 162 180 204 207 192 172 179 181 178 196 174 167 175 159 160 164 139 116 97 95 101 107 106 100 94 88 80 72 68 67 68 64 56 54 50 50 52 49 50 46 40 38 34 36 29 5 351 342 336 318 311 313 309 303 297 293 296 302 302 295 287 283 281 276 273 267 252 240 242 246 245 240 236 228 228 231 233 233 230 231 230 228 226 226 229 228 227 225 223 225
221 203 215 234 236 234 198 162 182 203 209 212 186 185 189 191 190 171 174 179 161 156 151 131 118 104 96 96 95 91 89 86 84 81 74 71 68 68 66 60 55 48 44 41 37 40 39 35 32 28 27 19 6 355 344 339 330 320 315 312 312 313 310 308 307 304 301 298 292 289 283 280 277 267 254 248 250 245 238 236 234 232 231 231 229 228 229 230 229 226 225 226 222 223 222 219 222
225 212 208 225 237 243 212 172 182 199 209 225 203 192 196 198 184 174 179 178 163 152 136 120 114 110 103 99 96 90 89 84 81 81 78 75 73 69 68 65 58 49 43 37 33 33 30 27 24 23 21 11 4 360 353 351 347 337 329 328 328 328 324 316 311 307 308 309 302 295 288 286 287 281 272 260 252 245 237 238 239 234 230 230 229 228 228 228 228 227 227 228 223 221 220 221 224
226 223 203 217 232 243 230 191 181 195 211 226 216 202 200 203 182 180 189 171 153 140 126 121 116 112 106 99 93 87 86 86 85 84 81 79 77 73 69 65 59 52 44 37 32 28 25 22 17 17 14 5 1 358 355 355 355 353 349 347 345 340 334 325 317 313 315 317 310 301 291 286 288 285 279 272 263 254 246 242 238 235 234 234 234 232 228 225 226 225 225 227 224 218 215 222 227
220 233 204 208 223 239 234 195 179 198 210 218 216 207 210 217 185 184 185 139 132 136 135 133 126 118 109 96 90 91 90 91 90 86 83 81 77 74 70 64 58 52 45 39 32 26 25 23 16 13 14 7 360 356 355 354 354 356 354 352 350 346 341 334 326 319 316 316 312 307 301 288 286 287 280 276 271 260 251 246 242 241 240 239 239 238 232 228 227 222 218 220 222 220 216 221 225
214 231 209 203 207 223 217 185 185 210 216 218 209 201 212 217 167 180 170 134 128 139 139 134 130 121 109 98 94 95 93 91 89 86 85 83 78 73 69 65 59 51 46 41 34 30 26 23 18 16 18 13 4 359 357 355 353 354 354 353 350 345 341 338 334 325 318 315 312 312 309 292 282 283 283 280 277 267 256 253 253 252 249 247 247 244 237 233 232 225 216 214 217 218 216 217 221
208 218 207 201 198 205 197 181 193 209 220 224 207 197 207 186 79 68 134 128 126 132 131 126 122 116 108 103 101 95 91 89 88 88 86 85 82 75 66 61 57 50 44 40 38 34 25 20 18 17 18 14 7 4 1 359 356 354 353 354 350 345 342 339 335 331 325 317 311 313 314 302 294 294 293 290 286 276 264 259 260 262 260 257 256 252 244 239 235 230 224 219 218 216 214 215 218
207 211 209 205 204 210 195 185 197 201 209 216 202 198 203 125 97 60 87 106 108 113 117 114 110 111 110 107 106 100 96 98 94 90 85 79 79 75 69 63 55 47 41 37 37 36 30 21 17 17 18 16 13 9 5 1 358 354 353 353 351 347 343 338 334 333 330 322 316 316 314 308 302 296 294 294 292 281 271 266 263 266 266 263 261 256 248 242 237 233 229 225 219 215 214 217 219
205 210 211 204 207 214 202 210 221 208 208 204 181 158 41 88 107 90 89 97 104 110 113 112 110 112 112 108 109 108 104 103 96 89 83 77 73 70 70 66 58 50 41 35 37 38 28 16 22 25 22 22 17 9 5 2 358 356 356 355 352 348 343 338 334 333 332 327 321 318 315 311 302 291 289 294 294 284 277 276 273 272 269 266 265 258 249 244 240 236 232 226 220 216 213 214 217
198 210 211 201 209 212 191 222 249 329 240 196 114 105 102 107 113 111 111 108 112 117 114 114 115 115 115 112 112 111 107 104 96 89 82 74 67 62 60 59 58 54 44 38 40 40 26 21 34 33 24 22 18 9 5 1 359 1 1 356 351 347 343 338 335 335 334 331 328 322 316 314 309 299 295 298 299 293 288 286 284 282 277 274 271 261 251 246 241 237 233 227 222 220 215 211 213
198 206 202 198 216 217 194 202 208 212 236 193 121 134 148 153 158 138 132 125 124 125 119 118 122 121 119 117 119 114 106 102 93 86 79 71 67 63 58 55 55 51 45 39 36 40 32 23 37 48 35 26 20 13 7 2 4 5 359 353 351 348 344 339 335 336 336 335 335 330 322 319 318 313 306 304 304 301 298 293 289 288 285 281 273 262 254 248 243 239 235 232 227 221 217 216 216
215 206 190 194 217 213 193 197 204 202 220 192 132 146 165 172 165 157 152 144 137 133 130 130 130 128 125 124 124 115 105 98 87 81 75 69 68 65 61 58 55 52 50 45 38 39 30 11 30 62 50 33 23 16 11 10 10 5 356 352 353 350 346 341 338 338 339 339 339 338 334 330 325 321 318 316 311 304 303 301 294 292 291 284 276 269 260 248 240 237 234 232 229 223 219 219 219
219 211 195 206 224 214 196 193 206 208 211 197 151 157 183 176 161 166 165 154 145 142 140 138 132 130 129 126 124 114 106 98 88 82 75 73 72 68 64 61 59 55 51 49 44 42 31 15 34 55 47 33 25 17 16 20 16 9 3 357 354 351 348 345 343 342 343 342 342 342 340 338 333 328 326 326 320 309 305 302 294 291 291 283 275 269 259 248 241 239 237 233 229 225 221 220 220
207 202 195 207 218 221 214 201 206 218 216 196 170 169 171 145 162 170 166 155 147 143 140 136 131 128 127 124 121 113 105 97 88 83 77 76 75 73 71 67 61 55 50 49 46 43 31 14 27 45 40 30 22 13 16 26 20 13 10 3 358 354 352 350 348 349 349 346 344 342 339 340 340 336 331 330 326 319 314 311 303 293 282 274 273 269 257 250 246 242 241 237 231 226 223 222 221
201 205 199 204 210 215 215 206 203 214 223 209 189 163 126 53 319 167 159 154 147 140 135 132 129 127 124 121 116 108 102 95 88 88 85 81 79 76 74 70 64 56 49 49 47 42 33 18 21 35 35 26 19 11 12 25 22 15 12 8 3 360 357 354 353 354 353 351 347 344 341 340 341 338 334 332 330 329 327 322 317 307 288 276 276 274 261 250 244 242 244 241 233 227 224 219 215
Height
774 775 774 774 773 774 772 770 785 779 777 788 773 767 751 728 726 726 727 725 730 728 722 725 722 725 732 738 747 751 752 758 764 770 782 771 758 763 763 765 768 771 776 779 783 785 786 787 788 789 792 793 794 795 796 796 797 798 799 800 800 801 802 803 803 805 805 806 808 809 810 810 811 812 812 813 813 813 813 814 814 814 814 814 814 815 815 815 816 817 817 817 818 818 818 818 818
774 775 773 775 772 776 773 767 789 785 780 787 768 757 740 722 727 729 728 727 733 730 722 723 723 726 728 730 736 747 755 755 756 760 764 760 761 765 765 769 770 773 778 782 785 786 788 789 789 790 792 793 794 795 796 797 798 798 799 800 801 802 802 803 804 805 806 807 808 809 811 811 812 812 813 814 814 814 814 815 815 815 815 816 816 816 816 817 817 817 818 818 819 819 819 819 819
774 775 773 775 771 772 771 769 788 790 786 785 765 744 728 726 728 726 726 727 727 724 724 725 727 727 727 735 740 753 762 754 753 757 759 761 764 766 768 770 772 777 780 784 787 787 789 789 790 791 792 793 794 795 796 797 798 799 800 800 801 802 802 803 804 805 806 807 808 810 811 812 813 813 814 814 815 815 815 816 816 816 817 817 817 817 818 818 818 818 818 819 819 820 820 820 820
773 774 772 772 772 773 775 779 783 786 788 780 766 742 726 728 727 727 727 726 724 723 727 727 731 727 729 746 745 752 760 754 754 758 761 763 765 768 770 772 776 779 782 785 787 788 789 790 791 791 792 793 794 796 796 797 798 799 800 800 801 802 803 803 804 806 806 808 809 810 811 812 813 813 814 815 816 816 816 817 817 817 818 818 818 819 819 819 819 819 819 820 820 820 820 820 821
773 774 772 770 776 774 774 780 776 780 782 770 762 741 726 727 726 730 728 727 724 724 727 726 735 730 733 744 743 754 759 754 754 755 760 764 766 770 771 775 778 781 784 786 786 788 790 791 791 791 793 793 794 796 796 797 798 799 799 800 801 801 803 804 805 806 807 808 809 810 811 812 813 814 815 816 816 816 817 817 818 818 818 819 819 819 819 820 820 819 820 820 820 820 820 820 821
773 772 770 769 771 768 774 782 777 775 764 753 755 738 727 726 725 729 728 727 722 722 724 726 732 735 745 745 741 750 750 753 756 755 760 765 768 770 773 776 779 783 785 786 787 788 790 791 791 792 792 793 794 795 796 796 797 798 799 800 801 801 803 804 805 806 807 808 810 811 812 813 814 815 815 816 817 817 818 818 819 819 819 820 820 820 820 820 820 820 820 820 821 821 821 821 821
772 772 769 772 772 768 783 786 776 771 752 739 742 732 727 727 726 731 731 730 728 725 724 725 725 738 754 748 748 747 743 750 752 756 762 766 770 771 775 777 780 784 785 786 787 788 790 791 791 792 792 792 793 794 795 795 796 798 799 800 801 802 803 805 806 807 808 809 810 811 812 813 814 815 816 817 818 818 819 819 820 820 820 820 820 821 820 821 821 821 821 821 821 821 821 821 821
771 772 767 775 779 774 782 780 770 764 748 732 726 723 726 727 729 733 733 732 734 730 728 726 721 742 755 746 757 753 746 753 754 760 764 767 771 773 776 778 781 784 786 786 787 788 789 790 790 790 791 792 792 793 794 795 797 798 800 801 802 803 804 806 807 808 809 810 811 812 813 814 815 816 817 818 819 819 820 820 820 821 821 821 821 821 821 822 821 821 821 821 821 821 822 822 822
769 771 769 775 780 776 776 773 765 755 743 732 724 722 723 726 730 733 734 732 730 729 729 727 722 745 758 752 761 755 752 759 759 763 765 770 772 774 778 779 782 783 785 786 786 786 786 788 788 789 790 792 793 794 796 797 799 799 801 802 803 805 806 807 808 809 810 811 812 813 814 814 815 816 817 818 819 820 820 821 821 822 822 822 822 822 822 822 822 822 822 822 822 822 822 823 823
767 768 771 775 778 780 776 768 758 747 737 728 722 720 722 725 729 733 736 733 728 729 726 721 724 743 756 758 762 756 758 761 761 766 768 772 773 776 779 780 782 781 783 782 781 781 782 786 787 790 791 793 794 795 797 798 800 800 802 803 805 805 806 808 808 810 810 812 813 814 815 815 816 816 817 818 819 820 821 821 822 822 823 823 823 823 823 823 823 823 823 823 823 822 823 823 824
770 767 768 777 781 781 775 764 753 740 729 722 719 719 723 725 729 732 733 731 726 729 725 722 730 741 753 761 762 757 758 762 764 768 770 773 775 778 779 781 781 778 776 775 777 778 781 785 787 789 790 792 793 794 796 797 799 800 801 803 804 805 806 808 809 810 811 812 813 814 815 815 817 817 818 818 819 820 821 822 822 823 823 824 823 823 823 823 824 824 824 823 823 823 823 824 824
774 769 768 782 782 775 766 759 749 735 723 722 726 721 721 725 732 735 734 732 726 729 725 727 730 733 756 767 764 759 758 764 767 770 772 774 776 779 781 780 778 775 775 777 781 784 785 788 788 789 790 792 793 795 796 797 799 799 801 801 803 804 805 807 809 811 812 813 814 815 816 816 817 818 819 819 820 820 821 822 822 824 824 824 824 824 824 824 824 824 824 824 824 824 824 825 825
772 768 769 778 772 767 761 754 745 736 729 727 728 722 721 728 734 733 732 730 727 732 725 723 722 729 759 768 764 761 760 765 767 771 773 775 778 780 780 779 778 777 781 784 785 786 787 789 791 793 795 797 798 800 801 801 802 802 803 803 804 805 806 808 809 811 812 813 815 816 817 818 819 819 820 820 821 821 822 823 823 824 825 825 825 825 824 824 825 825 825 824 824 825 825 826 826
767 762 766 771 764 761 758 754 744 741 739 726 723 722 725 730 730 727 727 732 731 728 718 714 721 738 760 765 768 765 762 767 768 772 773 776 779 779 780 779 780 781 784 785 785 786 789 792 795 798 800 802 804 805 806 807 807 807 807 807 808 808 808 810 810 811 812 814 816 817 818 819 820 821 821 822 822 822 823 823 823 824 825 825 825 825 825 825 825 825 825 825 825 825 826 827 827
761 758 763 769 766 761 755 752 744 745 738 722 723 724 728 727 722 724 724 729 727 714 710 715 722 742 757 760 769 764 762 768 769 773 773 777 779 779 781 780 782 783 785 786 787 789 792 795 797 800 802 804 806 807 808 809 810 810 810 810 810 811 812 812 813 813 814 815 816 817 819 820 821 822 822 823 823 824 824 824 824 824 825 825 826 825 825 825 825 826 826 826 826 826 827 827 828
756 757 765 771 770 766 755 745 744 749 736 722 725 723 730 727 720 726 718 717 723 713 716 725 724 737 748 751 758 757 761 767 769 773 774 778 780 780 782 782 784 784 786 787 790 792 794 797 799 802 803 805 806 807 809 809 810 810 811 812 812 813 814 814 815 816 816 817 818 818 819 820 821 822 822 823 824 824 825 825 825 825 825 825 826 826 826 826 826 826 826 827 827 827 828 828 829
753 760 770 772 770 765 753 742 742 744 733 727 727 723 733 731 722 721 710 712 725 723 723 730 729 735 745 748 752 755 761 766 769 773 774 778 780 781 783 784 786 786 787 789 791 794 796 799 801 803 804 805 806 806 808 808 809 810 812 813 814 815 815 817 817 818 819 819 820 820 820 821 821 821 822 822 823 824 825 825 825 825 825 826 826 826 826 826 826 827 827 827 827 828 828 829 830
757 767 774 773 767 758 744 735 732 730 730 732 728 725 729 731 728 720 716 722 726 727 730 735 739 741 746 750 753 757 763 766 769 772 774 779 780 781 784 784 786 787 789 791 793 796 798 801 803 805 805 805 805 806 807 808 809 810 812 814 815 816 817 818 818 819 821 821 822 821 821 821 821 821 821 822 822 823 824 825 825 825 826 826 826 826 827 827 827 827 827 828 828 828 829 829 830
760 766 772 769 758 745 731 726 728 729 732 733 731 727 726 727 726 722 728 733 730 736 739 742 749 750 750 751 755 760 763 767 769 771 774 778 780 781 783 784 785 787 789 791 795 797 800 803 805 805 805 804 804 805 806 807 808 809 812 813 815 817 818 819 820 821 822 823 823 822 821 821 821 821 821 822 822 822 823 824 825 825 826 826 826 827 827 827 828 828 828 828 828 829 829 830 830
759 762 769 762 747 738 725 724 730 732 732 734 734 729 726 724 720 722 731 735 736 741 742 747 756 756 755 755 756 760 764 768 769 771 775 778 779 780 781 783 784 786 789 792 796 800 802 803 804 803 802 802 803 804 805 806 807 809 811 812 814 816 817 818 820 823 824 825 824 823 822 821 822 822 823 823 823 823 823 824 825 825 826 826 827 827 828 828 828 828 828 828 828 829 829 829 830
756 758 764 751 739 738 727 724 730 733 734 736 735 732 732 725 720 725 729 737 743 737 733 742 752 754 755 757 758 761 765 767 769 772 775 777 779 780 781 782 784 786 790 793 796 799 801 801 799 798 799 800 802 804 805 806 807 809 811 812 814 815 817 819 822 824 827 827 826 824 822 822 822 823 824 824 824 824 824 824 824 825 826 826 827 827 828 828 828 829 829 828 828 829 828 829 830
755 754 754 743 737 738 729 726 730 732 737 739 738 737 732 725 726 728 727 740 747 734 727 735 745 750 752 755 758 761 764 766 768 771 773 776 779 780 782 783 785 788 791 793 794 797 799 798 796 796 798 800 803 805 806 807 809 811 812 812 814 816 818 820 823 826 828 827 825 824 822 822 823 825 826 826 825 824 824 824 824 825 826 827 827 827 828 828 829 829 829 829 828 829 828 829 830
757 754 747 742 738 738 731 729 731 732 741 744 739 735 731 731 735 728 725 738 741 732 730 737 744 746 749 753 756 760 763 765 767 768 771 776 779 780 782 784 786 789 792 792 793 796 797 795 795 796 798 801 804 806 807 809 811 812 813 813 814 815 818 820 823 826 828 827 826 825 825 825 827 829 829 829 827 825 825 824 824 825 826 827 827 827 828 828 829 829 829 829 829 829 829 830 830
755 755 746 741 739 738 734 731 733 737 744 741 735 737 738 740 738 728 727 733 734 733 735 740 744 744 749 753 757 760 762 764 767 769 772 776 779 782 783 784 786 788 790 791 794 796 796 794 795 798 800 802 805 807 809 811 813 813 813 813 813 814 816 819 822 824 826 827 827 827 826 826 829 831 832 830 828 827 826 825 825 825 826 827 826 827 828 828 829 829 830 830 829 829 829 830 830
752 753 746 739 737 737 735 734 737 740 742 738 736 742 742 736 731 729 731 731 732 736 738 742 745 747 752 757 760 761 763 766 768 770 774 777 780 783 784 785 787 788 789 791 794 797 797 794 796 800 801 804 806 809 811 812 813 813 814 814 813 813 816 818 821 822 825 828 828 827 826 826 828 832 833 831 829 827 826 826 826 826 826 826 826 826 826 827 828 829 829 830 829 829 829 830 830
747 748 746 741 737 735 735 736 738 740 739 738 743 746 740 731 730 733 731 729 731 734 740 744 747 750 754 758 761 762 765 769 770 773 775 778 782 784 786 787 787 788 790 792 794 796 797 796 799 801 803 806 808 810 812 812 812 813 814 814 814 815 817 818 820 822 826 828 828 827 825 824 827 829 831 830 828 827 827 827 827 826 826 825 825 826 826 826 827 828 828 829 829 829 829 830 830
739 741 743 741 738 734 735 737 738 740 738 738 745 747 738 730 736 741 732 726 729 735 743 745 748 753 756 759 761 763 768 770 772 774 776 778 782 785 786 787 787 788 790 792 794 796 797 798 800 802 805 807 809 811 812 812 812 814 814 815 816 817 818 819 820 823 826 826 825 825 823 823 826 826 828 829 827 826 826 827 828 827 826 825 825 825 826 826 826 827 827 828 829 828 829 830 830
735 737 742 742 739 736 736 738 739 740 741 737 739 743 737 733 740 739 729 727 730 737 745 745 748 753 756 761 763 765 769 771 773 775 777 779 781 784 785 786 787 788 789 791 793 795 797 799 800 802 805 807 809 810 811 812 813 814 814 815 817 817 818 819 821 823 823 821 820 821 821 822 825 826 828 827 826 826 825 826 828 828 827 826 825 825 825 825 826 826 827 828 828 828 829 830 830
735 737 747 746 741 742 738 737 739 740 742 734 736 747 744 742 743 730 725 729 730 738 745 743 747 754 759 764 766 767 770 772 774 776 778 780 782 783 784 786 786 788 790 791 793 794 796 798 800 802 804 807 809 810 811 813 813 813 813 814 816 816 817 818 820 820 820 819 818 819 821 821 823 825 827 827 825 826 826 826 826 827 828 826 824 824 825 825 825 826 826 828 828 829 830 830 830
738 738 748 749 748 748 738 735 738 739 738 730 738 758 753 744 739 725 724 729 731 740 744 741 747 756 762 767 769 771 774 776 775 778 780 780 782 783 784 786 787 788 790 792 793 794 795 797 800 802 804 807 809 810 811 811 811 811 812 813 814 815 816 817 818 819 818 819 819 820 821 822 823 823 825 825 824 824 825 825 824 825 827 825 822 823 824 824 825 825 826 827 827 828 829 829 829
741 743 746 750 755 750 736 734 738 740 736 726 740 760 751 741 734 724 726 728 732 742 744 745 752 759 765 768 771 774 775 778 777 778 781 781 782 783 785 786 787 788 789 792 793 794 796 797 800 802 804 807 809 810 810 810 810 811 811 813 814 815 817 818 818 818 818 818 819 820 821 821 822 822 822 823 823 823 823 824 824 825 826 826 823 822 823 824 824 825 825 826 827 828 828 828 829
743 752 755 751 754 747 734 732 735 740 736 727 742 757 746 736 729 724 727 728 733 741 745 751 757 763 768 770 773 777 778 777 777 779 781 782 783 784 785 786 787 788 789 792 794 795 797 798 800 801 803 806 808 809 809 810 810 810 811 812 813 815 816 817 817 818 818 818 819 819 819 819 819 820 820 820 821 822 822 822 823 824 825 827 825 823 823 823 824 824 825 826 826 827 827 828 829
743 752 758 751 750 747 735 731 731 734 736 731 740 750 743 732 727 726 729 730 733 738 745 754 758 762 769 774 778 781 782 779 778 779 780 781 783 784 785 786 787 788 789 791 793 796 798 799 800 801 803 804 806 808 809 810 811 810 810 811 812 813 814 816 816 817 816 817 817 817 817 817 818 818 818 818 819 820 820 820 822 822 823 826 827 824 823 824 824 824 824 825 825 826 827 827 828
748 748 753 746 743 744 735 731 730 729 735 736 737 742 737 727 726 730 730 730 733 736 746 755 755 761 769 775 780 781 782 780 778 779 780 781 783 784 785 786 787 789 790 791 793 796 797 799 800 801 803 804 805 807 808 810 810 810 810 810 811 811 812 814 814 814 814 814 814 815 815 816 816 816 816 816 816 817 817 818 819 820 821 824 825 823 822 823 824 824 823 824 824 825 825 826 827
749 748 751 745 738 738 732 729 730 729 733 737 739 743 737 728 727 731 730 730 733 734 744 754 756 765 773 775 777 777 779 780 778 778 780 782 783 784 785 786 788 789 791 792 793 795 797 799 800 802 803 804 805 805 807 809 809 809 809 809 809 809 810 812 813 812 812 812 812 813 814 814 814 814 814 813 813 814 815 815 816 816 817 820 822 821 821 822 823 824 823 823 823 823 824 824 825
739 739 743 743 736 733 727 721 722 726 733 737 739 743 740 737 734 733 731 729 732 735 743 752 757 762 768 771 773 775 779 781 779 779 781 783 784 785 786 787 789 790 792 793 794 795 797 798 800 801 803 804 805 806 807 808 808 808 808 809 808 809 811 811 812 811 811 811 812 812 812 812 812 812 811 811 811 811 811 811 812 812 813 815 818 819 819 819 821 822 822 822 822 821 822 823 823
728 730 735 736 733 730 719 714 717 720 732 737 735 736 737 739 738 734 733 732 734 738 745 752 755 757 760 765 772 776 781 782 780 781 782 784 786 787 788 789 790 791 793 794 795 797 797 797 799 800 801 802 804 805 805 805 805 807 809 811 811 810 811 811 812 811 811 811 811 811 810 811 811 810 811 810 810 809 809 808 808 809 810 813 815 816 816 817 818 820 820 821 822 821 820 821 821
726 726 730 731 729 724 711 708 715 718 730 736 730 731 736 738 738 733 733 736 738 741 747 751 751 755 761 767 775 780 782 782 782 784 785 786 788 789 790 791 792 793 794 795 796 798 799 799 799 800 801 801 803 805 806 806 807 808 810 811 811 811 811 811 811 810 810 809 809 809 808 808 808 808 809 809 809 809 809 807 806 807 809 811 813 814 815 816 817 818 819 820 823 822 820 820 821
729 723 724 730 725 717 709 704 711 718 728 733 730 735 740 738 737 736 737 739 740 742 745 749 752 760 768 774 781 784 784 785 786 787 788 789 790 791 792 793 793 794 795 796 797 798 800 801 801 802 803 804 805 806 807 808 808 808 809 810 810 810 810 809 809 808 808 807 807 806 806 806 806 806 807 808 808 809 808 807 806 807 808 809 811 812 813 814 815 816 817 818 822 823 821 820 821
732 724 722 726 719 715 715 707 709 717 723 726 729 740 746 743 743 742 741 741 741 743 745 751 759 766 773 777 782 786 787 790 792 791 791 791 792 793 794 794 795 795 796 797 798 799 800 801 802 803 804 805 806 806 806 807 807 808 808 809 809 808 808 808 807 807 806 805 805 804 804 804 804 804 805 806 807 807 808 807 807 807 807 808 809 809 810 811 812 813 815 817 820 823 823 821 821
731 723 717 715 713 713 711 706 708 716 723 719 723 750 758 751 753 751 744 744 747 747 749 756 764 767 772 778 784 788 790 793 794 794 795 794 793 795 795 795 796 796 797 798 799 800 800 801 802 802 803 804 804 805 805 806 806 807 807 807 807 807 806 806 805 804 804 803 803 803 803 802 802 803 803 804 805 806 807 807 807 807 807 807 807 808 808 809 810 811 813 816 817 820 824 823 821
731 722 711 706 708 709 703 704 712 727 738 723 724 766 778 756 754 756 750 751 755 756 757 761 766 768 773 783 792 795 795 795 795 796 796 795 795 796 797 797 797 797 798 799 799 800 801 801 802 802 803 803 804 804 804 805 805 805 806 805 805 805 804 803 803 802 802 802 801 801 801 801 800 801 801 802 803 803 804 805 805 806 806 806 807 807 808 808 808 809 811 813 814 816 822 824 821
732 719 709 705 703 703 703 709 722 737 743 725 723 761 780 765 756 754 755 757 759 762 763 764 770 773 777 786 794 796 796 797 797 797 797 796 797 798 799 799 799 799 800 800 801 801 801 801 802 802 803 803 803 804 804 804 804 804 804 804 803 803 802 802 801 801 801 800 800 800 799 799 799 799 799 800 801 801 802 803 804 805 805 805 807 808 807 807 807 808 809 811 812 814 818 821 820
727 710 708 709 702 701 703 713 728 732 730 726 724 742 767 773 759 750 754 760 763 766 766 770 778 782 784 788 792 793 796 798 798 799 799 799 799 799 800 801 800 801 801 801 802 802 802 802 802 802 803 803 803 804 804 803 804 803 803 803 802 802 801 801 800 800 799 799 798 798 798 798 797 798 798 798 798 799 799 801 803 803 803 804 805 806 806 806 806 807 807 809 810 811 813 817 818
715 703 707 708 702 701 700 713 729 728 732 741 731 732 761 772 752 745 753 757 767 772 771 778 784 787 790 792 794 795 796 798 798 800 800 800 801 801 802 802 802 803 803 803 803 803 803 802 803 803 803 804 804 803 804 803 803 802 802 802 801 801 800 800 800 799 799 798 797 797 797 796 796 797 797 797 797 797 797 799 800 801 801 802 803 804 804 804 805 805 806 807 809 809 810 814 816
706 700 705 705 704 703 700 713 725 729 744 751 733 730 759 769 750 746 755 758 770 780 780 785 788 789 792 793 795 796 796 798 799 800 801 801 802 802 803 804 804 805 804 805 805 804 804 803 803 803 803 804 804 803 803 802 802 802 801 801 800 800 799 799 799 798 798 797 797 796 796 795 795 795 796 796 796 796 796 797 798 798 799 800 800 801 801 802 802 803 804 805 806 807 809 810 812
704 701 704 708 708 705 704 708 718 739 757 748 729 724 744 763 755 746 751 754 768 784 789 790 790 792 795 795 797 798 798 800 801 801 802 802 803 804 805 805 806 807 807 807 807 806 806 805 804 804 804 804 804 803 803 802 802 802 801 801 800 800 799 799 798 797 797 796 796 795 795 794 794 793 793 794 795 795 795 795 795 796 797 798 798 798 798 798 798 800 801 802 803 804 806 807 808
706 707 709 719 720 717 717 714 724 755 765 743 725 721 734 757 758 744 744 751 764 780 788 791 794 795 796 797 799 800 800 802 802 803 803 803 805 805 806 807 807 808 809 808 809 808 808 807 806 805 805 805 804 804 803 802 802 802 801 801 800 800 799 798 797 797 796 795 795 795 794 794 793 792 791 791 792 794 794 794 794 794 795 795 796 796 796 796 796 797 799 799 799 800 802 804 806
709 712 716 730 738 740 739 735 742 758 754 731 719 726 738 746 747 740 740 754 768 775 781 788 793 796 797 798 800 801 802 803 803 804 805 805 807 807 807 808 809 809 810 810 810 810 809 808 807 806 806 806 806 805 804 804 803 802 802 801 801 800 799 798 797 796 796 795 794 794 793 793 792 791 791 791 791 792 793 793 792 793 794 794 795 796 796 796 796 796 796 797 797 797 800 802 804
709 714 719 730 742 753 754 749 753 756 746 726 714 728 741 746 758 757 747 754 767 773 780 787 792 795 797 799 801 803 804 805 806 805 806 807 807 808 809 809 810 810 811 811 811 811 811 810 808 807 807 807 807 807 806 805 804 803 803 802 801 800 799 798 797 796 795 794 793 793 793 792 792 792 792 791 791 791 791 792 791 791 792 793 794 795 795 795 795 795 795 795 796 797 798 799 801
706 704 708 720 727 740 748 747 751 753 744 727 719 739 757 766 780 775 758 761 768 776 784 787 793 796 796 800 803 805 807 806 807 807 807 808 807 809 810 810 811 812 812 812 812 812 812 811 810 808 808 807 807 807 807 806 806 805 804 803 802 801 799 798 797 796 795 793 793 793 792 792 792 792 791 791 791 790 790 790 790 790 790 791 792 793 793 793 793 793 793 793 794 795 796 797 798
705 697 704 715 713 715 728 732 732 736 738 734 742 766 777 778 781 774 770 776 777 783 788 789 796 798 797 803 805 806 809 807 808 808 808 808 809 809 810 811 812 813 813 813 813 813 813 811 810 809 808 808 808 808 808 807 807 806 805 805 803 802 800 798 797 796 794 793 793 792 791 791 790 790 790 790 790 790 790 790 789 788 788 790 791 791 791 791 791 791 791 792 792 793 794 794 795
704 703 705 703 695 700 723 733 727 732 746 749 761 783 787 784 786 781 780 785 785 788 791 793 798 800 801 805 807 808 809 808 809 809 809 810 810 811 811 812 813 814 814 814 813 813 813 812 811 810 810 810 809 810 809 808 807 807 806 805 804 803 801 799 797 796 794 793 792 791 790 790 789 789 789 788 788 788 789 789 788 788 788 789 789 789 789 789 789 789 789 790 789 790 791 792 793
701 709 701 694 696 699 716 736 741 747 756 754 762 781 786 787 792 788 784 788 792 791 793 796 799 802 805 807 809 810 809 809 809 809 810 811 811 812 813 813 814 815 814 814 814 814 814 813 811 811 811 811 811 810 810 810 808 808 807 806 805 803 801 800 798 796 795 793 792 791 790 789 789 788 788 787 787 786 787 787 787 787 786 787 788 787 787 787 788 788 788 788 788 788 789 789 790
690 695 688 698 718 717 717 733 746 753 755 755 765 776 775 775 783 787 785 787 792 793 794 798 800 803 807 808 810 810 810 810 810 810 812 812 813 814 814 815 815 815 815 815 815 815 814 813 811 811 811 811 811 811 810 810 809 809 808 807 805 804 802 801 799 797 795 794 793 792 791 790 789 788 787 787 786 785 785 785 785 785 784 785 786 786 786 786 787 787 787 786 786 787 787 787 787
684 686 687 696 709 713 716 723 732 743 748 753 771 778 769 763 767 775 778 778 786 792 795 797 800 803 807 809 810 811 811 812 811 813 814 813 814 815 814 816 816 816 816 815 815 816 815 813 812 811 810 811 811 811 810 810 810 809 809 807 806 804 803 802 800 798 796 794 793 792 791 790 789 788 787 786 785 784 784 784 784 783 781 782 783 783 784 784 786 786 785 784 784 784 785 785 786
692 696 701 703 702 703 709 713 714 726 737 746 765 776 768 759 757 760 767 772 778 786 792 796 799 803 806 808 810 811 811 813 813 814 815 814 815 815 815 816 816 816 816 815 815 816 815 814 813 811 811 811 812 811 810 810 810 809 809 807 807 805 804 803 800 799 797 795 794 792 791 790 789 788 787 786 785 784 784 784 784 783 780 779 779 779 780 781 783 783 783 782 782 782 783 784 784
691 695 698 703 705 707 717 723 713 711 723 730 744 766 772 765 758 756 760 767 774 781 789 797 800 803 807 808 809 811 812 813 815 815 816 816 815 814 815 815 816 817 816 816 816 816 816 815 813 813 812 812 812 811 811 811 810 810 809 808 808 806 805 803 801 799 798 797 795 793 792 790 789 788 787 786 785 784 784 784 784 784 782 780 778 777 777 779 780 780 780 781 781 782 783 783 783